Time,TemperatureF,DewpointF,PressureIn,WindDirection,WindDirectionDegrees,WindSpeedMPH,WindSpeedGustMPH,Humidity,HourlyPrecipIn,Conditions,Clouds,dailyrainin,SolarRadiationWatts/m^2,SoftwareType,DateUTC
2013-05-24 00:02:00,34.0,29.0,-100.00,NNW,338,3.0,5.0,82,0.00,,,0.06,0.000000,,2013-05-24 05:02:00,
2013-05-24 00:12:00,33.0,30.0,-100.00,NW,323,3.0,4.0,87,0.00,,,0.04,0.000000,,2013-05-24 05:12:00,
2013-05-24 00:32:00,33.0,30.0,-100.00,NW,323,3.0,4.0,87,0.00,,,0.04,0.000000,,2013-05-24 05:32:00,
2013-05-24 00:42:00,33.0,30.0,-100.00,NW,323,3.0,4.0,87,0.00,,,0.04,0.000000,,2013-05-24 05:42:00,
2013-05-24 00:52:00,33.0,30.0,-100.00,NW,323,3.0,4.0,87,0.00,,,0.04,0.000000,,2013-05-24 05:52:00,
2013-05-24 01:02:00,33.0,30.0,-100.00,NW,323,3.0,4.0,87,0.00,,,0.04,0.000000,,2013-05-24 06:02:00,
2013-05-24 01:32:00,32.0,28.0,-100.00,North,1,2.0,4.0,86,0.00,,,0.02,0.000000,,2013-05-24 06:32:00,
2013-05-24 01:42:00,32.0,28.0,-100.00,North,1,2.0,4.0,86,0.00,,,0.02,0.000000,,2013-05-24 06:42:00,
2013-05-24 01:52:00,32.0,28.0,-100.00,North,1,2.0,4.0,86,0.00,,,0.02,0.000000,,2013-05-24 06:52:00,
2013-05-24 02:01:00,32.0,28.0,-100.00,North,1,2.0,4.0,86,0.00,,,0.02,0.000000,,2013-05-24 07:01:00,
2013-05-24 02:11:00,32.0,28.0,-100.00,North,1,2.0,4.0,86,0.00,,,0.02,0.000000,,2013-05-24 07:11:00,
2013-05-24 02:32:00,32.0,28.0,-100.00,North,4,4.0,7.0,85,0.00,,,0.01,0.000000,,2013-05-24 07:32:00,
2013-05-24 02:42:00,32.0,28.0,-100.00,North,4,4.0,7.0,85,0.00,,,0.01,0.000000,,2013-05-24 07:42:00,
2013-05-24 02:52:00,32.0,28.0,-100.00,North,4,4.0,7.0,85,0.00,,,0.01,0.000000,,2013-05-24 07:52:00,
2013-05-24 03:02:00,32.0,28.0,-100.00,North,4,4.0,7.0,85,0.00,,,0.01,0.000000,,2013-05-24 08:02:00,
2013-05-24 03:11:00,32.0,28.0,-100.00,North,4,4.0,7.0,85,0.00,,,0.01,0.000000,,2013-05-24 08:11:00,
2013-05-24 03:33:00,33.0,29.0,-100.00,NE,35,4.0,8.0,85,0.00,,,0.01,0.000000,,2013-05-24 08:33:00,
2013-05-24 03:42:00,33.0,29.0,-100.00,NE,35,4.0,8.0,85,0.00,,,0.01,0.000000,,2013-05-24 08:42:00,
2013-05-24 03:52:00,33.0,29.0,-100.00,NE,35,4.0,8.0,85,0.00,,,0.01,0.000000,,2013-05-24 08:52:00,
2013-05-24 04:02:00,33.0,29.0,-100.00,NE,35,4.0,8.0,85,0.00,,,0.01,0.000000,,2013-05-24 09:02:00,
2013-05-24 04:11:00,33.0,29.0,-100.00,NE,35,4.0,8.0,85,0.00,,,0.01,0.000000,,2013-05-24 09:11:00,
2013-05-24 04:12:00,32.0,30.0,-100.00,NNE,12,5.0,10.0,91,0.00,,,0.01,0.000000,,2013-05-24 09:12:00,
2013-05-24 04:33:00,32.0,30.0,-100.00,NNE,12,5.0,10.0,91,0.00,,,0.01,0.000000,,2013-05-24 09:33:00,
2013-05-24 04:42:00,32.0,30.0,-100.00,NNE,12,5.0,10.0,91,0.00,,,0.01,0.000000,,2013-05-24 09:42:00,
2013-05-24 04:53:00,32.0,30.0,-100.00,NNE,12,5.0,10.0,91,0.00,,,0.01,0.000000,,2013-05-24 09:53:00,
2013-05-24 05:03:00,32.0,30.0,-100.00,NNE,12,5.0,10.0,91,0.00,,,0.01,0.000000,,2013-05-24 10:03:00,
2013-05-24 05:12:00,32.0,30.0,-100.00,North,360,4.0,9.0,92,0.00,,,-99.99,1.000000,,2013-05-24 10:12:00,
2013-05-24 05:33:00,32.0,30.0,-100.00,North,360,4.0,9.0,92,0.00,,,-99.99,1.000000,,2013-05-24 10:33:00,
2013-05-24 05:42:00,32.0,30.0,-100.00,North,360,4.0,9.0,92,0.00,,,-99.99,1.000000,,2013-05-24 10:42:00,
2013-05-24 05:53:00,32.0,30.0,-100.00,North,360,4.0,9.0,92,0.00,,,-99.99,1.000000,,2013-05-24 10:53:00,
2013-05-24 06:02:00,32.0,30.0,-100.00,North,360,4.0,9.0,92,0.00,,,-99.99,1.000000,,2013-05-24 11:02:00,
2013-05-24 06:32:00,36.0,31.0,-100.00,North,7,3.0,8.0,82,0.00,,,0.01,60.000000,,2013-05-24 11:32:00,
2013-05-24 06:42:00,36.0,31.0,-100.00,North,7,3.0,8.0,82,0.00,,,0.01,60.000000,,2013-05-24 11:42:00,
2013-05-24 06:52:00,36.0,31.0,-100.00,North,7,3.0,8.0,82,0.00,,,0.01,60.000000,,2013-05-24 11:52:00,
2013-05-24 07:02:00,36.0,31.0,-100.00,North,7,3.0,8.0,82,0.00,,,0.01,60.000000,,2013-05-24 12:02:00,
2013-05-24 07:11:00,36.0,31.0,-100.00,North,7,3.0,8.0,82,0.00,,,0.01,60.000000,,2013-05-24 12:11:00,
2013-05-24 07:33:00,43.0,33.0,-100.00,NNE,23,4.0,6.0,68,0.00,,,0.01,220.000000,,2013-05-24 12:33:00,
2013-05-24 07:42:00,43.0,33.0,-100.00,NNE,23,4.0,6.0,68,0.00,,,0.01,220.000000,,2013-05-24 12:42:00,
2013-05-24 07:52:00,43.0,33.0,-100.00,NNE,23,4.0,6.0,68,0.00,,,0.01,220.000000,,2013-05-24 12:52:00,
2013-05-24 08:02:00,43.0,33.0,-100.00,NNE,23,4.0,6.0,68,0.00,,,0.01,220.000000,,2013-05-24 13:02:00,
2013-05-24 08:11:00,43.0,33.0,-100.00,NNE,23,4.0,6.0,68,0.00,,,0.01,220.000000,,2013-05-24 13:11:00,
2013-05-24 08:32:00,46.0,31.0,-100.00,NNE,20,5.0,9.0,56,0.00,,,0.01,424.000000,,2013-05-24 13:32:00,
2013-05-24 08:42:00,46.0,31.0,-100.00,NNE,20,5.0,9.0,56,0.00,,,0.01,424.000000,,2013-05-24 13:42:00,
2013-05-24 08:52:00,46.0,31.0,-100.00,NNE,20,5.0,9.0,56,0.00,,,0.01,424.000000,,2013-05-24 13:52:00,
2013-05-24 09:01:00,46.0,31.0,-100.00,NNE,20,5.0,9.0,56,0.00,,,0.01,424.000000,,2013-05-24 14:01:00,
2013-05-24 09:11:00,46.0,31.0,-100.00,NNE,20,5.0,9.0,56,0.00,,,0.01,424.000000,,2013-05-24 14:11:00,
2013-05-24 09:32:00,50.0,31.0,-100.00,NNE,16,7.0,13.0,47,0.00,,,0.01,625.000000,,2013-05-24 14:32:00,
2013-05-24 09:42:00,50.0,31.0,-100.00,NNE,16,7.0,13.0,47,0.00,,,0.01,625.000000,,2013-05-24 14:42:00,
2013-05-24 09:52:00,50.0,31.0,-100.00,NNE,16,7.0,13.0,47,0.00,,,0.01,625.000000,,2013-05-24 14:52:00,
2013-05-24 10:02:00,50.0,31.0,-100.00,NNE,16,7.0,13.0,47,0.00,,,0.01,625.000000,,2013-05-24 15:02:00,
2013-05-24 10:11:00,50.0,31.0,-100.00,NNE,16,7.0,13.0,47,0.00,,,0.01,625.000000,,2013-05-24 15:11:00,
2013-05-24 10:12:00,53.0,32.0,-100.00,NE,34,5.0,15.0,45,0.00,,,0.00,797.000000,,2013-05-24 15:12:00,
2013-05-24 10:33:00,53.0,32.0,-100.00,NE,34,5.0,15.0,45,0.00,,,0.00,797.000000,,2013-05-24 15:33:00,
2013-05-24 10:43:00,53.0,32.0,-100.00,NE,34,5.0,15.0,45,0.00,,,0.00,797.000000,,2013-05-24 15:43:00,
2013-05-24 10:52:00,53.0,32.0,-100.00,NE,34,5.0,15.0,45,0.00,,,0.00,797.000000,,2013-05-24 15:52:00,
2013-05-24 11:03:00,53.0,32.0,-100.00,NE,34,5.0,15.0,45,0.00,,,0.00,797.000000,,2013-05-24 16:03:00,
2013-05-24 11:12:00,58.0,33.0,-100.00,North,7,6.0,14.0,39,0.00,,,0.00,940.000000,,2013-05-24 16:12:00,
2013-05-24 11:33:00,58.0,33.0,-100.00,North,7,6.0,14.0,39,0.00,,,0.00,940.000000,,2013-05-24 16:33:00,
2013-05-24 11:42:00,58.0,33.0,-100.00,North,7,6.0,14.0,39,0.00,,,0.00,940.000000,,2013-05-24 16:42:00,
2013-05-24 11:52:00,58.0,33.0,-100.00,North,7,6.0,14.0,39,0.00,,,0.00,940.000000,,2013-05-24 16:52:00,
2013-05-24 12:02:00,58.0,33.0,-100.00,North,7,6.0,14.0,39,0.00,,,0.00,940.000000,,2013-05-24 17:02:00,
2013-05-24 12:32:00,58.0,33.0,-100.00,ENE,61,5.0,14.0,39,0.00,,,0.00,1037.000000,,2013-05-24 17:32:00,
2013-05-24 12:42:00,58.0,33.0,-100.00,ENE,61,5.0,14.0,39,0.00,,,0.00,1037.000000,,2013-05-24 17:42:00,
2013-05-24 12:52:00,58.0,33.0,-100.00,ENE,61,5.0,14.0,39,0.00,,,0.00,1037.000000,,2013-05-24 17:52:00,
2013-05-24 13:01:00,58.0,33.0,-100.00,ENE,61,5.0,14.0,39,0.00,,,0.00,1037.000000,,2013-05-24 18:01:00,
2013-05-24 13:11:00,58.0,33.0,-100.00,ENE,61,5.0,14.0,39,0.00,,,0.00,1037.000000,,2013-05-24 18:11:00,
2013-05-24 13:32:00,60.0,33.0,-100.00,NE,52,5.0,12.0,36,0.00,,,0.00,1069.000000,,2013-05-24 18:32:00,
2013-05-24 13:42:00,60.0,33.0,-100.00,NE,52,5.0,12.0,36,0.00,,,0.00,1069.000000,,2013-05-24 18:42:00,
2013-05-24 13:52:00,60.0,33.0,-100.00,NE,52,5.0,12.0,36,0.00,,,0.00,1069.000000,,2013-05-24 18:52:00,
2013-05-24 14:01:00,60.0,33.0,-100.00,NE,52,5.0,12.0,36,0.00,,,0.00,1069.000000,,2013-05-24 19:01:00,
2013-05-24 14:11:00,60.0,33.0,-100.00,NE,52,5.0,12.0,36,0.00,,,0.00,1069.000000,,2013-05-24 19:11:00,
2013-05-24 14:32:00,62.0,33.0,-100.00,NNW,347,5.0,12.0,33,0.00,,,0.00,1048.000000,,2013-05-24 19:32:00,
2013-05-24 14:42:00,62.0,33.0,-100.00,NNW,347,5.0,12.0,33,0.00,,,0.00,1048.000000,,2013-05-24 19:42:00,
2013-05-24 14:52:00,62.0,33.0,-100.00,NNW,347,5.0,12.0,33,0.00,,,0.00,1048.000000,,2013-05-24 19:52:00,
2013-05-24 15:02:00,62.0,33.0,-100.00,NNW,347,5.0,12.0,33,0.00,,,0.00,1048.000000,,2013-05-24 20:02:00,
2013-05-24 15:11:00,62.0,33.0,-100.00,NNW,347,5.0,12.0,33,0.00,,,0.00,1048.000000,,2013-05-24 20:11:00,
2013-05-24 15:32:00,64.0,33.0,-100.00,NNW,347,5.0,13.0,31,0.00,,,0.00,922.000000,,2013-05-24 20:32:00,
2013-05-24 15:42:00,64.0,33.0,-100.00,NNW,347,5.0,13.0,31,0.00,,,0.00,922.000000,,2013-05-24 20:42:00,
2013-05-24 15:52:00,64.0,33.0,-100.00,NNW,347,5.0,13.0,31,0.00,,,0.00,922.000000,,2013-05-24 20:52:00,
2013-05-24 16:01:00,64.0,33.0,-100.00,NNW,347,5.0,13.0,31,0.00,,,0.00,922.000000,,2013-05-24 21:01:00,
2013-05-24 16:11:00,64.0,33.0,-100.00,NNW,347,5.0,13.0,31,0.00,,,0.00,922.000000,,2013-05-24 21:11:00,
2013-05-24 16:12:00,63.0,33.0,-100.00,NNE,18,4.0,10.0,32,0.00,,,0.00,822.000000,,2013-05-24 21:12:00,
2013-05-24 16:33:00,63.0,33.0,-100.00,NNE,18,4.0,10.0,32,0.00,,,0.00,822.000000,,2013-05-24 21:33:00,
2013-05-24 16:43:00,63.0,33.0,-100.00,NNE,18,4.0,10.0,32,0.00,,,0.00,822.000000,,2013-05-24 21:43:00,
2013-05-24 16:53:00,63.0,33.0,-100.00,NNE,18,4.0,10.0,32,0.00,,,0.00,822.000000,,2013-05-24 21:53:00,
2013-05-24 17:02:00,63.0,33.0,-100.00,NNE,18,4.0,10.0,32,0.00,,,0.00,822.000000,,2013-05-24 22:02:00,
2013-05-24 17:33:00,62.0,31.0,-100.00,ESE,107,5.0,11.0,31,0.00,,,0.00,613.000000,,2013-05-24 22:33:00,
2013-05-24 17:42:00,62.0,31.0,-100.00,ESE,107,5.0,11.0,31,0.00,,,0.00,613.000000,,2013-05-24 22:42:00,
2013-05-24 17:52:00,62.0,31.0,-100.00,ESE,107,5.0,11.0,31,0.00,,,0.00,613.000000,,2013-05-24 22:52:00,
2013-05-24 18:02:00,62.0,31.0,-100.00,ESE,107,5.0,11.0,31,0.00,,,0.00,613.000000,,2013-05-24 23:02:00,
2013-05-24 18:11:00,62.0,31.0,-100.00,ESE,107,5.0,11.0,31,0.00,,,0.00,613.000000,,2013-05-24 23:11:00,
2013-05-24 18:32:00,58.0,33.0,-100.00,SSE,147,6.0,13.0,39,0.00,,,0.00,420.000000,,2013-05-24 23:32:00,
2013-05-24 18:42:00,58.0,33.0,-100.00,SSE,147,6.0,13.0,39,0.00,,,0.00,420.000000,,2013-05-24 23:42:00,
2013-05-24 18:52:00,58.0,33.0,-100.00,SSE,147,6.0,13.0,39,0.00,,,0.00,420.000000,,2013-05-24 23:52:00,
2013-05-24 19:01:00,58.0,33.0,-100.00,SSE,147,6.0,13.0,39,0.00,,,0.00,420.000000,,2013-05-25 00:01:00,
2013-05-24 19:11:00,58.0,33.0,-100.00,SSE,147,6.0,13.0,39,0.00,,,0.00,420.000000,,2013-05-25 00:11:00,
2013-05-24 19:32:00,56.0,33.0,-100.00,SE,133,4.0,9.0,41,0.00,,,0.00,147.000000,,2013-05-25 00:32:00,
2013-05-24 19:42:00,56.0,33.0,-100.00,SE,133,4.0,9.0,41,0.00,,,0.00,147.000000,,2013-05-25 00:42:00,
2013-05-24 19:52:00,56.0,33.0,-100.00,SE,133,4.0,9.0,41,0.00,,,0.00,147.000000,,2013-05-25 00:52:00,
2013-05-24 20:01:00,56.0,33.0,-100.00,SE,133,4.0,9.0,41,0.00,,,0.00,147.000000,,2013-05-25 01:01:00,
2013-05-24 20:11:00,56.0,33.0,-100.00,SE,133,4.0,9.0,41,0.00,,,0.00,147.000000,,2013-05-25 01:11:00,
2013-05-24 20:32:00,52.0,33.0,-100.00,ESE,106,2.0,8.0,49,0.00,,,0.00,61.000000,,2013-05-25 01:32:00,
2013-05-24 20:42:00,52.0,33.0,-100.00,ESE,106,2.0,8.0,49,0.00,,,0.00,61.000000,,2013-05-25 01:42:00,
2013-05-24 20:52:00,52.0,33.0,-100.00,ESE,106,2.0,8.0,49,0.00,,,0.00,61.000000,,2013-05-25 01:52:00,
2013-05-24 21:02:00,52.0,33.0,-100.00,ESE,106,2.0,8.0,49,0.00,,,0.00,61.000000,,2013-05-25 02:02:00,
2013-05-24 21:11:00,52.0,33.0,-100.00,ESE,106,2.0,8.0,49,0.00,,,0.00,61.000000,,2013-05-25 02:11:00,
2013-05-24 21:32:00,46.0,35.0,-100.00,East,97,3.0,5.0,65,0.00,,,0.00,2.000000,,2013-05-25 02:32:00,
2013-05-24 21:42:00,46.0,35.0,-100.00,East,97,3.0,5.0,65,0.00,,,0.00,2.000000,,2013-05-25 02:42:00,
2013-05-24 21:52:00,46.0,35.0,-100.00,East,97,3.0,5.0,65,0.00,,,0.00,2.000000,,2013-05-25 02:52:00,
2013-05-24 22:02:00,46.0,35.0,-100.00,East,97,3.0,5.0,65,0.00,,,0.00,2.000000,,2013-05-25 03:02:00,
2013-05-24 22:11:00,46.0,35.0,-100.00,East,97,3.0,5.0,65,0.00,,,0.00,2.000000,,2013-05-25 03:11:00,
2013-05-24 22:12:00,43.0,35.0,-100.00,ENE,63,2.0,5.0,72,0.00,,,0.00,0.000000,,2013-05-25 03:12:00,
2013-05-24 22:33:00,43.0,35.0,-100.00,ENE,63,2.0,5.0,72,0.00,,,0.00,0.000000,,2013-05-25 03:33:00,
2013-05-24 22:43:00,43.0,35.0,-100.00,ENE,63,2.0,5.0,72,0.00,,,0.00,0.000000,,2013-05-25 03:43:00,
2013-05-24 22:53:00,43.0,35.0,-100.00,ENE,63,2.0,5.0,72,0.00,,,0.00,0.000000,,2013-05-25 03:53:00,
2013-05-24 23:02:00,43.0,35.0,-100.00,ENE,63,2.0,5.0,72,0.00,,,0.00,0.000000,,2013-05-25 04:02:00,
2013-05-24 23:12:00,38.0,35.0,-100.00,ENE,77,0.0,2.0,88,0.00,,,0.00,0.000000,,2013-05-25 04:12:00,
2013-05-24 23:33:00,38.0,35.0,-100.00,ENE,77,0.0,2.0,88,0.00,,,0.00,0.000000,,2013-05-25 04:33:00,
2013-05-24 23:43:00,38.0,35.0,-100.00,ENE,77,0.0,2.0,88,0.00,,,0.00,0.000000,,2013-05-25 04:43:00,
2013-05-24 23:53:00,38.0,35.0,-100.00,ENE,77,0.0,2.0,88,0.00,,,0.00,0.000000,,2013-05-25 04:53:00,